This is the latest recevied weather packets stored in our database for station/object KI4BSX. If no packets are shown the sender has not sent any weather packets the latest 10 day(s).
| Time | Temp. | Humidity | Pressure | Rain* | Wind** | Luminosity | Snow |
|---|---|---|---|---|---|---|---|
| 1778149517 | 17.22° C | 99% | 1012.4 hPa | 3.05 mm | - | - | - |
| 1778149213 | 17.22° C | 99% | 1012.4 hPa | 3.05 mm | - | - | - |
| 1778148908 | 17.22° C | 99% | 1012.9 hPa | 1.78 mm | - | - | - |
| 1778148605 | 17.22° C | 99% | 1012.9 hPa | 0 mm | - | - | - |
| 1778148302 | 17.22° C | 99% | 1012.8 hPa | 0 mm | - | - | - |
| 1778148000 | 17.22° C | 99% | 1012.7 hPa | 0 mm | - | - | - |
| 1778147697 | 17.22° C | 99% | 1012.8 hPa | 0 mm | - | - | - |
| 1778147389 | 17.22° C | 99% | 1012.9 hPa | 0 mm | - | - | - |
| 1778147084 | 17.22° C | 99% | 1012.8 hPa | 0 mm | - | - | - |
| 1778146782 | 17.22° C | 99% | 1012.7 hPa | 0 mm | - | - | - |
| 1778146479 | 17.22° C | 99% | 1012.8 hPa | 0 mm | - | - | - |
| 1778146178 | 17.22° C | 99% | 1012.9 hPa | 0 mm | - | - | - |
| 1778145874 | 17.22° C | 99% | 1013.2 hPa | 0 mm | - | - | - |
| 1778145570 | 17.22° C | 99% | 1013.2 hPa | 0 mm | - | - | - |
| 1778145267 | 17.22° C | 99% | 1013.2 hPa | 0 mm | - | - | - |
| 1778144963 | 17.22° C | 99% | 1013.2 hPa | 0 mm | - | - | - |
| 1778144659 | 17.22° C | 99% | 1013 hPa | 0 mm | - | - | - |
| 1778144356 | 17.22° C | 99% | 1013.3 hPa | 1.27 mm | - | - | - |
| 1778144053 | 17.22° C | 99% | 1013.2 hPa | 1.27 mm | - | - | - |
| 1778143750 | 17.22° C | 99% | 1013.3 hPa | 0 mm | - | - | - |
| 1778143447 | 17.22° C | 99% | 1013.4 hPa | 0 mm | - | - | - |
| 1778143144 | 17.22° C | 99% | 1013.6 hPa | 0 mm | - | - | - |
| 1778142840 | 17.22° C | 99% | 1013.4 hPa | 0 mm | - | - | - |
| 1778142536 | 17.22° C | 99% | 1013.1 hPa | 0 mm | - | - | - |
| 1778142232 | 17.22° C | 99% | 1013.3 hPa | 1.78 mm | - | - | - |
* Rain latest hour (hover to see other rain measurements)
** Current wind speed in m/s (hover to see current wind gust speed)